Home   Weather   Riverside   Past weeks
Flag for USA

Past Weather in Riverside, Ohio, USA — Yesterday and Last 2 Weeks

Now
65 °F

Clear.


Feels Like: 65 °F
Forecast: 86 / 67 °F
Wind: 8 mph from Southwest

Location: Dayton / Wright-Patterson Air Force Base

Current Time: Jun 26, 2019 at 2:32:16 am

Latest Report: Jun 26, 2019 at 1:56 am


Visibility: 10 mi

Pressure: 30.04 "Hg

Humidity: 84%

Dew Point: 60 °F

Location of RiversideLocation

Past Weather in Riverside — Graph

°F

Riverside Temperature Yesterday

Maximum temperature yesterday: 83 °F (at 4:56 pm)
Minimum temperature yesterday: 62 °F (at 5:56 am)
Average temperature yesterday: 74 °F

High & Low Weather Summary for the Past Weeks

 TemperatureHumidityPressure
High83 °F (Jun 25, 4:56 pm)100% (Jun 16, 1:26 am)30.25 "Hg (Jun 16, 1:26 am)
Low46 °F (Jun 11, 5:56 am)31% (Jun 11, 4:56 pm)29.57 "Hg (Jun 20, 12:56 pm)
Average69 °F78%29.91 "Hg
* Reported Jun 11 12:56 am — Jun 26 12:56 am, Riverside. Weather by CustomWeather, © 2019

Note: Actual official high and low records may vary slightly from our data, if they occured in-between our weather recording intervals... More about our weather records

Advertising

Riverside Weather History for the Previous 24 Hours

Scroll right to see more
 ConditionsComfort  
Time TempWeatherWind HumidityBarometerVisibility
12:56 am
Wed, Jun 26
67 °FClear.6 mph80%30.05 "Hg10 mi
11:56 pm
Tue, Jun 25
68 °FClear.3 mph75%30.03 "Hg10 mi
10:56 pm71 °FClear.5 mph70%30.02 "Hg10 mi
9:56 pm72 °FOvercast.8 mph68%30.01 "Hg10 mi
8:56 pm75 °FSunny.9 mph60%29.99 "Hg10 mi
7:56 pm80 °FSunny.13 mph50%29.98 "Hg10 mi
6:56 pm82 °FSunny.10 mph47%29.97 "Hg10 mi
5:56 pm83 °FPassing clouds.13 mph45%29.97 "Hg10 mi
4:56 pm83 °FSunny.14 mph45%29.98 "Hg10 mi
3:56 pm83 °FPassing clouds.14 mph46%29.98 "Hg10 mi
2:56 pm81 °FScattered clouds.12 mph46%29.99 "Hg10 mi
2:11 pm82 °FWarm.12 mph45%30.01 "Hg10 mi
1:56 pm81 °FWarm.12 mph48%29.99 "Hg10 mi
1:22 pm81 °FPassing clouds.15 mph48%30.00 "Hg10 mi
12:56 pm80 °FPassing clouds.14 mph52%30.00 "Hg10 mi
11:56 am79 °FPassing clouds.16 mph54%29.99 "Hg10 mi
10:56 am76 °FSunny.10 mph62%29.98 "Hg10 mi
9:56 am73 °FSunny.9 mph70%29.98 "Hg10 mi
8:56 am70 °FSunny.8 mph77%29.96 "Hg10 mi
7:56 am67 °FSunny.7 mph89%29.95 "Hg10 mi
6:56 am63 °FSunny.6 mph98%29.93 "Hg10 mi
5:56 am62 °FClear.7 mph97%29.90 "Hg10 mi
4:56 am64 °FClear.6 mph97%29.87 "Hg10 mi
3:56 am65 °FClear.8 mph96%29.85 "Hg10 mi
2:56 am66 °FClear.8 mph95%29.84 "Hg10 mi
Weather by CustomWeather, © 2019

See weather overview